UAE96 LIRF-OMDB

Flight info

Callsign UAE96
Flight time N/A
Altitude 35000
Route PEPIX L50 UNIXO BELIX UM728 SALUN N705 BOPIX N710 TAKRI M720 FYM M872 WEJ L604 GAS L308 DAROR P559 VUTEB
Aircraft B77W/H-SDE1E2E3FGHIJ2J3J4J5M1RWXYZ/LB1D1

Departure

Time 2026-05-07 12:28
Airport Rome–Fiumicino Leonardo da Vinci International Airport (LIRF)

Arrival

Time N/A
Airport Dubai International Airport (OMDB)
Time Latitude Longitude Altitude Speed Heading
2026-05-07 10:21 41.79853 12.24651 19 ft 0 kts 160°
2026-05-07 12:17 41.79860 12.24648 19 ft 4 kts 160°
2026-05-07 12:17 41.79885 12.24635 22 ft 4 kts 160°
2026-05-07 12:17 41.79910 12.24623 22 ft 4 kts 160°
2026-05-07 12:18 41.79934 12.24611 21 ft 4 kts 153°
2026-05-07 12:18 41.79949 12.24597 21 ft 4 kts 114°
2026-05-07 12:18 41.79952 12.24586 23 ft 4 kts 62°
2026-05-07 12:18 41.79938 12.24557 22 ft 4 kts 56°
2026-05-07 12:19 41.79926 12.24531 21 ft 1 kts 69°
2026-05-07 12:19 41.79924 12.24525 22 ft 0 kts 69°
2026-05-07 12:21 41.79925 12.24527 22 ft 3 kts 69°
2026-05-07 12:22 41.79952 12.24621 21 ft 15 kts 69°
2026-05-07 12:22 41.79988 12.24747 19 ft 13 kts 62°
2026-05-07 12:22 41.80045 12.24777 19 ft 7 kts 357°
2026-05-07 12:22 41.80103 12.24774 19 ft 9 kts 357°
2026-05-07 12:23 41.80170 12.24792 20 ft 10 kts 35°
2026-05-07 12:23 41.80203 12.24884 18 ft 12 kts 78°
2026-05-07 12:23 41.80207 12.25007 18 ft 14 kts 88°
2026-05-07 12:23 41.80226 12.25147 18 ft 17 kts 72°
2026-05-07 12:24 41.80269 12.25300 19 ft 19 kts 69°
2026-05-07 12:24 41.80316 12.25467 20 ft 20 kts 70°
2026-05-07 12:24 41.80366 12.25651 20 ft 22 kts 70°
2026-05-07 12:24 41.80421 12.25851 20 ft 24 kts 70°
2026-05-07 12:25 41.80480 12.26070 20 ft 26 kts 69°
2026-05-07 12:25 41.80545 12.26297 21 ft 26 kts 68°
2026-05-07 12:25 41.80607 12.26524 22 ft 26 kts 70°
2026-05-07 12:25 41.80670 12.26754 19 ft 27 kts 70°
2026-05-07 12:26 41.80731 12.26975 18 ft 16 kts 70°
2026-05-07 12:26 41.80778 12.27040 18 ft 10 kts 13°
2026-05-07 12:26 41.80847 12.27021 18 ft 11 kts 339°
2026-05-07 12:26 41.80926 12.26975 18 ft 13 kts 323°
2026-05-07 12:27 41.80944 12.26878 18 ft 11 kts 254°
2026-05-07 12:27 41.80892 12.26687 18 ft 35 kts 249°
2026-05-07 12:27 41.80767 12.26235 28 ft 85 kts 250°
2026-05-07 12:27 41.80442 12.25047 25 ft 185 kts 250°
2026-05-07 12:28 41.79918 12.23193 633 ft 217 kts 248°
2026-05-07 12:28 41.79359 12.21386 2263 ft 215 kts 245°
2026-05-07 12:28 41.78466 12.19685 3701 ft 222 kts 222°
2026-05-07 12:28 41.77230 12.18494 5025 ft 234 kts 213°
2026-05-07 12:29 41.75849 12.17262 5809 ft 242 kts 214°
2026-05-07 12:29 41.74327 12.16374 6401 ft 237 kts 185°
2026-05-07 12:29 41.72636 12.16480 6755 ft 255 kts 174°
2026-05-07 12:29 41.70801 12.16725 7163 ft 271 kts 176°
2026-05-07 12:30 41.68900 12.16931 7873 ft 276 kts 175°
2026-05-07 12:30 41.67052 12.17671 8472 ft 282 kts 151°
2026-05-07 12:30 41.65383 12.19070 9211 ft 286 kts 149°
2026-05-07 12:30 41.63684 12.20519 9952 ft 292 kts 149°
2026-05-07 12:31 41.61956 12.21969 10726 ft 293 kts 150°
2026-05-07 12:31 41.60209 12.23410 11391 ft 302 kts 151°
2026-05-07 12:31 41.58342 12.24925 11607 ft 326 kts 151°
2026-05-07 12:31 41.56327 12.26542 11888 ft 347 kts 151°
2026-05-07 12:32 41.54212 12.28230 12542 ft 357 kts 152°
2026-05-07 12:32 41.52065 12.29937 13343 ft 362 kts 152°
2026-05-07 12:32 41.49889 12.31661 14186 ft 365 kts 152°
2026-05-07 12:32 41.47691 12.33398 14945 ft 369 kts 153°
2026-05-07 12:33 41.43225 12.36917 16370 ft 381 kts 153°
2026-05-07 12:33 41.40930 12.38722 17122 ft 386 kts 154°
2026-05-07 12:33 41.38601 12.40553 17840 ft 391 kts 154°
2026-05-07 12:34 41.36246 12.42404 18527 ft 396 kts 154°
2026-05-07 12:34 41.33860 12.44277 19187 ft 400 kts 154°
2026-05-07 12:34 41.31450 12.46169 19887 ft 403 kts 154°
2026-05-07 12:34 41.29033 12.48065 20597 ft 405 kts 154°
2026-05-07 12:35 41.26615 12.49960 21446 ft 402 kts 154°
2026-05-07 12:35 41.24248 12.51940 22367 ft 402 kts 149°
2026-05-07 12:35 41.22067 12.54314 22971 ft 413 kts 142°
2026-05-07 12:35 41.20031 12.57092 23068 ft 435 kts 134°
2026-05-07 12:36 41.18095 12.60274 23216 ft 451 kts 133°
2026-05-07 12:36 41.16138 12.63592 23515 ft 462 kts 132°
2026-05-07 12:36 41.14146 12.67002 23873 ft 469 kts 132°
2026-05-07 12:36 41.12141 12.70432 24296 ft 474 kts 132°
2026-05-07 12:37 41.10106 12.73897 24758 ft 477 kts 133°
2026-05-07 12:37 41.08059 12.77361 25223 ft 480 kts 133°
2026-05-07 12:37 41.05980 12.80857 25655 ft 484 kts 133°
2026-05-07 12:37 41.03882 12.84371 26072 ft 488 kts 134°
2026-05-07 12:38 41.01765 12.87905 26478 ft 492 kts 134°
2026-05-07 12:38 40.99624 12.91473 26870 ft 496 kts 134°
2026-05-07 12:38 40.97476 12.95048 27263 ft 500 kts 134°
2026-05-07 12:38 40.95300 12.98667 27642 ft 503 kts 134°
2026-05-07 12:39 40.93109 13.02309 28017 ft 507 kts 134°
2026-05-07 12:39 40.90911 13.05956 28387 ft 510 kts 134°
2026-05-07 12:39 40.88688 13.09642 28726 ft 513 kts 134°
2026-05-07 12:39 40.86449 13.13350 29041 ft 517 kts 135°
2026-05-07 12:40 40.84201 13.17069 29356 ft 520 kts 135°
2026-05-07 12:40 40.81944 13.20800 29763 ft 521 kts 135°
2026-05-07 12:40 40.79712 13.24486 30169 ft 520 kts 135°
2026-05-07 12:40 40.78188 13.27002 30419 ft 521 kts 135°
2026-05-07 12:41 40.75180 13.31957 30824 ft 522 kts 135°
2026-05-07 12:41 40.73642 13.34487 31005 ft 524 kts 135°
2026-05-07 12:41 40.70615 13.39457 31383 ft 526 kts 135°
2026-05-07 12:41 40.68320 13.43221 31674 ft 527 kts 135°
2026-05-07 12:42 40.66018 13.46990 31963 ft 528 kts 135°
2026-05-07 12:42 40.64460 13.49540 32154 ft 529 kts 135°
2026-05-07 12:42 40.62175 13.53275 32421 ft 531 kts 135°
2026-05-07 12:42 40.59850 13.57070 32675 ft 533 kts 135°
2026-05-07 12:43 40.57519 13.60872 32932 ft 534 kts 136°
2026-05-07 12:43 40.55176 13.64685 32991 ft 539 kts 136°
2026-05-07 12:43 40.50455 13.72363 32972 ft 538 kts 136°
2026-05-07 12:44 40.45760 13.79988 32972 ft 536 kts 136°
2026-05-07 12:44 40.41056 13.87595 32971 ft 538 kts 136°
2026-05-07 12:45 40.36318 13.95236 32975 ft 540 kts 136°
2026-05-07 12:45 40.31557 14.02896 32984 ft 543 kts 136°
2026-05-07 12:46 40.26767 14.10589 32976 ft 545 kts 136°
2026-05-07 12:46 40.21956 14.18296 32973 ft 547 kts 137°
2026-05-07 12:47 40.17166 14.25952 32971 ft 548 kts 137°
2026-05-07 12:47 40.12329 14.33664 32966 ft 548 kts 137°
2026-05-07 12:48 40.07490 14.41359 32965 ft 549 kts 137°
2026-05-07 12:48 40.02639 14.49053 32963 ft 549 kts 137°
2026-05-07 12:49 39.97776 14.56748 32966 ft 549 kts 137°
2026-05-07 12:49 39.92902 14.64439 32967 ft 550 kts 137°
2026-05-07 12:50 39.88032 14.72104 32964 ft 550 kts 137°
2026-05-07 12:50 39.83147 14.79775 32959 ft 550 kts 137°
2026-05-07 12:51 39.78286 14.87392 32961 ft 550 kts 137°
2026-05-07 12:51 39.73399 14.95031 32961 ft 550 kts 137°
2026-05-07 12:52 39.68495 15.02676 32959 ft 551 kts 137°
2026-05-07 12:52 39.63580 15.10318 32951 ft 551 kts 137°
2026-05-07 12:53 39.58657 15.17956 32963 ft 552 kts 137°
2026-05-07 12:53 39.53725 15.25589 32954 ft 552 kts 138°
2026-05-07 12:54 39.48789 15.33210 32951 ft 552 kts 138°
2026-05-07 12:54 39.43882 15.40769 32950 ft 552 kts 138°
2026-05-07 12:55 39.38939 15.48364 32946 ft 552 kts 138°
2026-05-07 12:55 39.33976 15.55970 32938 ft 553 kts 138°
2026-05-07 12:56 39.29014 15.63557 32951 ft 553 kts 138°
2026-05-07 12:56 39.24047 15.71134 32955 ft 553 kts 138°
2026-05-07 12:57 39.19072 15.78706 32959 ft 553 kts 138°
2026-05-07 12:57 39.14098 15.86255 32956 ft 552 kts 138°
2026-05-07 12:58 39.09119 15.93797 32963 ft 552 kts 137°
2026-05-07 12:58 39.04162 16.01286 32980 ft 552 kts 137°
2026-05-07 12:59 38.99184 16.08789 32979 ft 551 kts 137°
2026-05-07 12:59 38.94188 16.16302 32995 ft 550 kts 137°
2026-05-07 13:00 38.89217 16.23760 32990 ft 550 kts 137°
2026-05-07 13:00 38.84274 16.31159 32995 ft 549 kts 137°
2026-05-07 13:01 38.79285 16.38608 32991 ft 548 kts 137°
2026-05-07 13:01 38.74333 16.45985 33001 ft 545 kts 137°
2026-05-07 13:02 38.69395 16.53324 33018 ft 543 kts 137°
2026-05-07 13:02 38.64449 16.60656 33026 ft 543 kts 137°
2026-05-07 13:03 38.59501 16.67974 33039 ft 545 kts 137°
2026-05-07 13:03 38.54543 16.75289 33035 ft 546 kts 137°
2026-05-07 13:04 38.49565 16.82618 33037 ft 548 kts 137°
2026-05-07 13:04 38.44557 16.89977 33027 ft 549 kts 137°
2026-05-07 13:05 38.39554 16.97313 33024 ft 548 kts 137°
2026-05-07 13:05 38.34531 17.04660 33024 ft 548 kts 137°
2026-05-07 13:06 38.29504 17.11994 33021 ft 549 kts 137°
2026-05-07 13:06 38.24475 17.19312 33020 ft 550 kts 137°
2026-05-07 13:07 38.19433 17.26635 33020 ft 551 kts 137°
2026-05-07 13:07 38.14407 17.33918 33017 ft 553 kts 137°
2026-05-07 13:08 38.09330 17.41258 33017 ft 554 kts 137°
2026-05-07 13:08 38.04224 17.48623 33014 ft 555 kts 137°
2026-05-07 13:09 37.99089 17.56014 33013 ft 556 kts 137°
2026-05-07 13:09 37.93981 17.63348 33009 ft 557 kts 137°
2026-05-07 13:10 37.88858 17.70688 33012 ft 558 kts 137°
2026-05-07 13:10 37.83710 17.78046 33017 ft 558 kts 137°
2026-05-07 13:11 37.78564 17.85385 33010 ft 559 kts 137°
2026-05-07 13:11 37.73383 17.92757 33016 ft 559 kts 137°
2026-05-07 13:12 37.68194 18.00122 33021 ft 560 kts 137°
2026-05-07 13:12 37.63040 18.07423 33022 ft 560 kts 137°
2026-05-07 13:13 37.57847 18.14761 33017 ft 560 kts 137°
2026-05-07 13:13 37.52669 18.22062 33032 ft 560 kts 137°
2026-05-07 13:14 37.47445 18.29411 33010 ft 560 kts 137°
2026-05-07 13:14 37.42275 18.36667 33024 ft 560 kts 137°
2026-05-07 13:15 37.37037 18.44003 33026 ft 560 kts 137°
2026-05-07 13:15 37.31849 18.51252 33021 ft 560 kts 137°
2026-05-07 13:16 37.26597 18.58574 33022 ft 560 kts 137°
2026-05-07 13:16 37.21416 18.65782 33024 ft 560 kts 137°
2026-05-07 13:17 37.16166 18.73070 33023 ft 560 kts 137°
2026-05-07 13:17 37.10976 18.80258 33025 ft 559 kts 137°
2026-05-07 13:18 37.05748 18.87484 33033 ft 559 kts 137°
2026-05-07 13:18 37.00510 18.94710 33031 ft 559 kts 137°
2026-05-07 13:19 36.95611 19.02324 33039 ft 565 kts 127°
2026-05-07 13:19 36.91678 19.10820 33046 ft 568 kts 121°
2026-05-07 13:20 36.87886 19.19480 33038 ft 568 kts 121°
2026-05-07 13:20 36.84035 19.28084 33045 ft 568 kts 122°
2026-05-07 13:21 36.80145 19.36661 33044 ft 568 kts 122°
2026-05-07 13:21 36.76277 19.45177 33046 ft 568 kts 121°
2026-05-07 13:22 36.72387 19.53736 33051 ft 568 kts 121°
2026-05-07 13:22 36.68432 19.62397 33064 ft 581 kts 121°
2026-05-07 13:23 36.64380 19.71238 33064 ft 592 kts 121°
2026-05-07 13:23 36.60276 19.80179 33062 ft 596 kts 121°
2026-05-07 13:24 36.56150 19.89153 33060 ft 597 kts 121°
2026-05-07 13:24 36.52023 19.98103 33059 ft 596 kts 121°
2026-05-07 13:25 36.47900 20.07017 33064 ft 593 kts 121°
2026-05-07 13:25 36.43784 20.15890 33068 ft 592 kts 121°
2026-05-07 13:26 36.40365 20.23243 33065 ft 590 kts 121°
2026-05-07 13:26 36.35592 20.33482 33071 ft 590 kts 121°
2026-05-07 13:27 36.31479 20.42280 33081 ft 589 kts 121°
2026-05-07 13:27 36.27358 20.51073 33080 ft 590 kts 121°
2026-05-07 13:28 36.23923 20.58383 33083 ft 590 kts 121°
2026-05-07 13:28 36.19784 20.67171 33088 ft 591 kts 121°
2026-05-07 13:29 36.15630 20.75971 33085 ft 591 kts 121°
2026-05-07 13:29 36.11477 20.84742 33087 ft 591 kts 121°
2026-05-07 13:30 36.07309 20.93525 33093 ft 591 kts 121°
2026-05-07 13:30 36.03133 21.02304 33093 ft 591 kts 121°
2026-05-07 13:31 35.98962 21.11049 33093 ft 591 kts 121°
2026-05-07 13:31 35.94799 21.19744 33091 ft 591 kts 121°
2026-05-07 13:32 35.90613 21.28466 33096 ft 591 kts 121°
2026-05-07 13:32 35.86400 21.37228 33098 ft 590 kts 121°
2026-05-07 13:33 35.82209 21.45921 33099 ft 590 kts 121°
2026-05-07 13:33 35.78009 21.54613 33098 ft 590 kts 121°
2026-05-07 13:34 35.71727 21.67569 33101 ft 590 kts 121°
2026-05-07 13:35 35.67487 21.76287 33103 ft 590 kts 121°
2026-05-07 13:35 35.63297 21.84881 33104 ft 590 kts 121°
2026-05-07 13:36 35.59077 21.93514 33102 ft 590 kts 121°
2026-05-07 13:36 35.54840 22.02159 33104 ft 590 kts 121°
2026-05-07 13:37 35.50604 22.10783 33102 ft 590 kts 121°
2026-05-07 13:37 35.46352 22.19417 33103 ft 590 kts 121°
2026-05-07 13:38 35.42109 22.28016 33106 ft 589 kts 121°
2026-05-07 13:38 35.37747 22.36524 33105 ft 589 kts 127°
2026-05-07 13:39 35.32718 22.44421 33117 ft 588 kts 130°
2026-05-07 13:39 35.27592 22.52231 33113 ft 589 kts 130°
2026-05-07 13:40 35.22489 22.60084 33111 ft 589 kts 129°
2026-05-07 13:40 35.17414 22.67953 33116 ft 589 kts 129°
2026-05-07 13:41 35.12374 22.75764 33117 ft 589 kts 129°
2026-05-07 13:41 35.07283 22.83625 33120 ft 589 kts 129°
2026-05-07 13:42 35.02188 22.91465 33117 ft 589 kts 129°
2026-05-07 13:42 34.97089 22.99297 33119 ft 589 kts 129°
2026-05-07 13:43 34.91990 23.07110 33122 ft 589 kts 129°
2026-05-07 13:43 34.86878 23.14927 33127 ft 589 kts 129°
2026-05-07 13:44 34.81770 23.22723 33128 ft 589 kts 129°
2026-05-07 13:44 34.76660 23.30502 33131 ft 588 kts 129°
2026-05-07 13:45 34.71549 23.38270 33135 ft 588 kts 129°
2026-05-07 13:45 34.66427 23.46029 33135 ft 588 kts 129°
2026-05-07 13:46 34.61292 23.53773 33139 ft 588 kts 129°
2026-05-07 13:46 34.56189 23.61451 33140 ft 588 kts 129°
2026-05-07 13:47 34.51053 23.69168 33141 ft 588 kts 129°
2026-05-07 13:47 34.45904 23.76890 33142 ft 588 kts 129°
2026-05-07 13:48 34.40752 23.84598 33141 ft 588 kts 129°
2026-05-07 13:48 34.35589 23.92306 33161 ft 589 kts 129°
2026-05-07 13:49 34.30424 24.00002 33142 ft 589 kts 129°
2026-05-07 13:49 34.25281 24.07646 33140 ft 589 kts 129°
2026-05-07 13:50 34.20112 24.15314 33138 ft 588 kts 129°
2026-05-07 13:50 34.14928 24.22988 33155 ft 588 kts 129°
2026-05-07 13:51 34.09754 24.30631 33156 ft 588 kts 129°
2026-05-07 13:51 34.04578 24.38263 33141 ft 587 kts 129°
2026-05-07 13:52 33.99292 24.45770 33137 ft 587 kts 134°
2026-05-07 13:52 33.93347 24.52365 33166 ft 585 kts 140°
2026-05-07 13:53 33.87206 24.58819 33158 ft 585 kts 140°
2026-05-07 13:53 33.81102 24.65290 33155 ft 586 kts 140°
2026-05-07 13:54 33.75015 24.71804 33151 ft 586 kts 140°
2026-05-07 13:54 33.68922 24.78332 33155 ft 586 kts 140°
2026-05-07 13:55 33.62829 24.84840 33152 ft 586 kts 140°
2026-05-07 13:55 33.56732 24.91332 33155 ft 586 kts 140°
2026-05-07 13:56 33.50668 24.97774 33152 ft 586 kts 140°
2026-05-07 13:56 33.46591 25.02098 33149 ft 586 kts 140°
2026-05-07 13:57 33.38441 25.10727 33155 ft 587 kts 140°
2026-05-07 13:57 33.32324 25.17189 33154 ft 587 kts 140°
2026-05-07 13:58 33.26198 25.23648 33143 ft 587 kts 140°
2026-05-07 13:58 33.20072 25.30094 33158 ft 587 kts 140°
2026-05-07 13:59 33.13931 25.36544 33158 ft 587 kts 140°
2026-05-07 13:59 33.07790 25.42981 33149 ft 587 kts 140°
2026-05-07 14:00 33.01688 25.49364 33156 ft 587 kts 140°
2026-05-07 14:00 32.95545 25.55778 33156 ft 587 kts 140°
2026-05-07 14:01 32.89398 25.62184 33158 ft 587 kts 139°
2026-05-07 14:01 32.83248 25.68581 33153 ft 587 kts 139°
2026-05-07 14:02 32.77102 25.74961 33156 ft 587 kts 139°
2026-05-07 14:02 32.70950 25.81336 33157 ft 587 kts 139°
2026-05-07 14:03 32.64783 25.87714 33153 ft 587 kts 139°
2026-05-07 14:03 32.58618 25.94078 33156 ft 587 kts 139°
2026-05-07 14:04 32.52449 26.00434 33152 ft 587 kts 139°
2026-05-07 14:04 32.46278 26.06779 33155 ft 587 kts 139°
2026-05-07 14:05 32.40096 26.13125 33152 ft 587 kts 139°
2026-05-07 14:05 32.33925 26.19447 33147 ft 587 kts 139°
2026-05-07 14:06 32.27784 26.25726 33141 ft 587 kts 139°
2026-05-07 14:06 32.21601 26.32037 33145 ft 587 kts 139°
2026-05-07 14:07 32.15423 26.38330 33146 ft 587 kts 139°
2026-05-07 14:07 32.09242 26.44616 33144 ft 586 kts 139°
2026-05-07 14:08 32.03060 26.50890 33142 ft 586 kts 139°
2026-05-07 14:08 31.96867 26.57164 33147 ft 586 kts 139°
2026-05-07 14:09 31.90690 26.63412 33153 ft 586 kts 139°
2026-05-07 14:09 31.84497 26.69663 33145 ft 586 kts 139°
2026-05-07 14:10 31.78310 26.75896 33150 ft 586 kts 139°
2026-05-07 14:10 31.72115 26.82126 33155 ft 586 kts 139°
2026-05-07 14:11 31.65929 26.88336 33158 ft 585 kts 139°
2026-05-07 14:11 31.59766 26.94513 33161 ft 585 kts 139°
2026-05-07 14:12 31.53571 27.00710 33164 ft 585 kts 139°
2026-05-07 14:12 31.47345 27.06927 33175 ft 585 kts 139°
2026-05-07 14:13 31.41165 27.13089 33179 ft 585 kts 139°
2026-05-07 14:13 31.34931 27.19215 33186 ft 585 kts 142°
2026-05-07 14:14 31.28126 27.24418 33190 ft 585 kts 153°
2026-05-07 14:14 31.22002 27.27785 33188 ft 583 kts 158°
2026-05-07 14:15 31.14618 27.31657 33180 ft 584 kts 157°
2026-05-07 14:15 31.07218 27.35645 33169 ft 584 kts 156°
2026-05-07 14:16 30.99876 27.39636 33155 ft 584 kts 156°
2026-05-07 14:16 30.92683 27.44020 33151 ft 585 kts 148°
2026-05-07 14:17 30.86136 27.49639 33154 ft 584 kts 140°
2026-05-07 14:17 30.79854 27.55603 33145 ft 585 kts 140°
2026-05-07 14:18 30.73515 27.61543 33136 ft 585 kts 140°
2026-05-07 14:18 30.67132 27.67443 33133 ft 585 kts 141°
2026-05-07 14:19 30.60739 27.73325 33123 ft 585 kts 141°
2026-05-07 14:19 30.54363 27.79187 33125 ft 585 kts 141°
2026-05-07 14:20 30.47966 27.85067 33120 ft 585 kts 141°
2026-05-07 14:20 30.41607 27.90903 33110 ft 586 kts 141°
2026-05-07 14:21 30.35192 27.96778 33099 ft 586 kts 141°
2026-05-07 14:21 30.28810 28.02613 33104 ft 585 kts 141°
2026-05-07 14:22 30.22461 28.08409 33093 ft 585 kts 141°
2026-05-07 14:22 30.16052 28.14249 33094 ft 585 kts 141°
2026-05-07 14:23 30.09658 28.20066 33092 ft 585 kts 140°
2026-05-07 14:23 30.03247 28.25889 33086 ft 585 kts 140°
2026-05-07 14:24 29.96883 28.31660 33087 ft 585 kts 140°
2026-05-07 14:24 29.90450 28.37492 33080 ft 584 kts 139°
2026-05-07 14:25 29.84583 28.43875 33084 ft 581 kts 129°
2026-05-07 14:25 29.79628 28.51141 33080 ft 577 kts 123°
2026-05-07 14:26 29.74777 28.58564 33067 ft 578 kts 123°
2026-05-07 14:26 29.69899 28.65855 33068 ft 579 kts 124°
2026-05-07 14:27 29.64945 28.73208 33066 ft 579 kts 124°
2026-05-07 14:27 29.60031 28.80505 33062 ft 579 kts 124°
2026-05-07 14:28 29.55099 28.87819 33058 ft 579 kts 123°
2026-05-07 14:28 29.50180 28.95104 33058 ft 579 kts 123°
2026-05-07 14:29 29.45312 29.02465 33036 ft 573 kts 117°
2026-05-07 14:29 29.43491 29.06446 33063 ft 563 kts 105°
2026-05-07 14:29 29.42261 29.10661 33075 ft 554 kts 97°
2026-05-07 14:30 29.41421 29.19226 33069 ft 533 kts 81°
2026-05-07 14:30 29.41456 29.27753 33074 ft 535 kts 81°
2026-05-07 14:31 29.41425 29.36260 33066 ft 536 kts 82°
2026-05-07 14:31 29.41323 29.44815 33068 ft 536 kts 82°
2026-05-07 14:32 29.41200 29.53363 33069 ft 535 kts 82°
2026-05-07 14:32 29.41075 29.61908 33069 ft 534 kts 82°
2026-05-07 14:33 29.40951 29.70368 33067 ft 532 kts 82°
2026-05-07 14:33 29.40823 29.78855 33061 ft 531 kts 82°
2026-05-07 14:34 29.40689 29.87325 33065 ft 530 kts 82°
2026-05-07 14:34 29.40552 29.95727 33064 ft 529 kts 82°
2026-05-07 14:35 29.40408 30.04163 33061 ft 529 kts 83°
2026-05-07 14:35 29.40258 30.12601 33056 ft 528 kts 83°
2026-05-07 14:36 29.40104 30.21020 33056 ft 528 kts 83°
2026-05-07 14:36 29.39945 30.29391 33056 ft 527 kts 83°
2026-05-07 14:37 29.39010 30.37777 33055 ft 546 kts 103°
2026-05-07 14:37 29.35082 30.45354 33050 ft 567 kts 129°
2026-05-07 14:37 29.32314 30.48601 33062 ft 569 kts 131°
2026-05-07 14:38 29.26687 30.55009 33059 ft 570 kts 131°
2026-05-07 14:38 29.21132 30.61464 33053 ft 570 kts 130°
2026-05-07 14:39 29.15647 30.67976 33054 ft 568 kts 130°
2026-05-07 14:39 29.10148 30.74529 33052 ft 566 kts 130°
2026-05-07 14:40 29.04698 30.80997 33053 ft 564 kts 130°
2026-05-07 14:40 28.99256 30.87433 33055 ft 562 kts 130°
2026-05-07 14:41 28.93838 30.93829 33058 ft 560 kts 130°
2026-05-07 14:41 28.88441 31.00193 33058 ft 558 kts 131°
2026-05-07 14:42 28.83064 31.06523 33055 ft 557 kts 131°
2026-05-07 14:42 28.77666 31.12869 33058 ft 555 kts 131°
2026-05-07 14:43 28.72294 31.19175 33057 ft 554 kts 131°
2026-05-07 14:43 28.66968 31.25523 33055 ft 551 kts 130°
2026-05-07 14:44 28.61871 31.31984 33054 ft 549 kts 129°
2026-05-07 14:44 28.56809 31.38455 33055 ft 547 kts 130°
2026-05-07 14:45 28.51724 31.44878 33041 ft 546 kts 130°
2026-05-07 14:45 28.46631 31.51259 33053 ft 545 kts 130°
2026-05-07 14:46 28.41545 31.57620 33052 ft 543 kts 130°
2026-05-07 14:46 28.36482 31.63948 33036 ft 542 kts 130°
2026-05-07 14:47 28.31412 31.70280 33029 ft 542 kts 131°
2026-05-07 14:47 28.26318 31.76630 33023 ft 541 kts 131°
2026-05-07 14:48 28.21282 31.82898 33043 ft 540 kts 131°
2026-05-07 14:48 28.16197 31.89218 33040 ft 540 kts 131°
2026-05-07 14:49 28.11168 31.95461 33021 ft 539 kts 131°
2026-05-07 14:49 28.06090 32.01763 33018 ft 538 kts 130°
2026-05-07 14:50 28.01641 32.08492 33010 ft 535 kts 120°
2026-05-07 14:50 27.98093 32.15843 32993 ft 533 kts 116°
2026-05-07 14:51 27.94593 32.23266 32989 ft 532 kts 116°
2026-05-07 14:51 27.91078 32.30604 32974 ft 532 kts 117°
2026-05-07 14:52 27.87526 32.37949 32964 ft 532 kts 117°
2026-05-07 14:52 27.83975 32.45267 32957 ft 531 kts 117°
2026-05-07 14:53 27.80432 32.52563 32949 ft 531 kts 117°
2026-05-07 14:53 27.76883 32.59862 32947 ft 531 kts 117°
2026-05-07 14:54 27.73315 32.67190 32946 ft 531 kts 117°
2026-05-07 14:54 27.69752 32.74494 32946 ft 531 kts 118°
2026-05-07 14:55 27.66191 32.81781 32945 ft 531 kts 118°
2026-05-07 14:55 27.62640 32.89036 32940 ft 530 kts 118°
2026-05-07 14:56 27.59070 32.96317 32944 ft 530 kts 118°
2026-05-07 14:56 27.55500 33.03585 32949 ft 529 kts 118°
2026-05-07 14:57 27.51950 33.10800 32942 ft 529 kts 118°
2026-05-07 14:57 27.48387 33.18029 32938 ft 529 kts 118°
2026-05-07 14:58 27.44806 33.25283 32934 ft 528 kts 118°
2026-05-07 14:58 27.41253 33.32472 32942 ft 527 kts 118°
2026-05-07 14:59 27.37684 33.39678 32935 ft 527 kts 118°
2026-05-07 14:59 27.34108 33.46880 32939 ft 527 kts 119°
2026-05-07 15:00 27.30534 33.54064 32928 ft 527 kts 119°
2026-05-07 15:00 27.26955 33.61252 32924 ft 527 kts 119°
2026-05-07 15:01 27.23373 33.68435 32910 ft 526 kts 119°
2026-05-07 15:01 27.19791 33.75608 32912 ft 527 kts 119°
2026-05-07 15:02 27.16506 33.82890 32914 ft 526 kts 112°
2026-05-07 15:02 27.13834 33.90545 32910 ft 526 kts 111°
2026-05-07 15:03 27.11174 33.98202 32916 ft 527 kts 111°
2026-05-07 15:03 27.08463 34.05836 32916 ft 527 kts 112°
2026-05-07 15:04 27.05730 34.13476 32909 ft 527 kts 112°
2026-05-07 15:04 27.03011 34.21071 32914 ft 528 kts 112°
2026-05-07 15:05 27.00271 34.28709 32908 ft 528 kts 112°
2026-05-07 15:05 26.97529 34.36337 32907 ft 527 kts 112°
2026-05-07 15:06 26.95248 34.42672 32898 ft 527 kts 113°
2026-05-07 15:06 26.92502 34.50286 32894 ft 527 kts 113°
2026-05-07 15:07 26.89755 34.57890 32890 ft 526 kts 113°
2026-05-07 15:07 26.87007 34.65481 32885 ft 525 kts 113°
2026-05-07 15:08 26.84258 34.73060 32887 ft 525 kts 113°
2026-05-07 15:08 26.81499 34.80650 32886 ft 525 kts 114°
2026-05-07 15:09 26.78757 34.88180 32875 ft 526 kts 114°
2026-05-07 15:09 26.75992 34.95758 32890 ft 526 kts 114°
2026-05-07 15:10 26.73218 35.03349 32876 ft 527 kts 114°
2026-05-07 15:10 26.70437 35.10940 32867 ft 528 kts 115°
2026-05-07 15:11 26.67647 35.18544 32879 ft 529 kts 115°
2026-05-07 15:11 26.64847 35.26160 32875 ft 529 kts 115°
2026-05-07 15:12 26.62041 35.33778 32875 ft 530 kts 115°
2026-05-07 15:12 26.59229 35.41398 32874 ft 530 kts 115°
2026-05-07 15:13 26.56414 35.49012 32875 ft 530 kts 116°
2026-05-07 15:13 26.53540 35.56599 32875 ft 530 kts 117°
2026-05-07 15:14 26.50628 35.64175 32876 ft 531 kts 117°
2026-05-07 15:14 26.47739 35.71700 32876 ft 531 kts 117°
2026-05-07 15:15 26.44827 35.79292 32874 ft 532 kts 117°
2026-05-07 15:15 26.41917 35.86876 32877 ft 532 kts 117°
2026-05-07 15:16 26.38993 35.94478 32874 ft 533 kts 118°
2026-05-07 15:16 26.36066 36.02071 32876 ft 533 kts 118°
2026-05-07 15:17 26.33137 36.09654 32878 ft 533 kts 118°
2026-05-07 15:17 26.30197 36.17252 32881 ft 533 kts 118°
2026-05-07 15:18 26.27254 36.24845 32879 ft 534 kts 119°
2026-05-07 15:18 26.24303 36.32448 32882 ft 534 kts 119°
2026-05-07 15:19 26.21352 36.40039 32883 ft 534 kts 119°
2026-05-07 15:19 26.18566 36.47727 32884 ft 540 kts 114°
2026-05-07 15:20 26.16857 36.55882 32882 ft 549 kts 104°
2026-05-07 15:20 26.15799 36.64317 32880 ft 551 kts 103°
2026-05-07 15:21 26.14751 36.72776 32876 ft 551 kts 103°
2026-05-07 15:21 26.13655 36.81217 32892 ft 552 kts 104°
2026-05-07 15:22 26.12525 36.89667 32885 ft 552 kts 104°
2026-05-07 15:22 26.11386 36.98112 32884 ft 552 kts 104°
2026-05-07 15:23 26.10244 37.06568 32888 ft 553 kts 104°
2026-05-07 15:23 26.09099 37.15028 32893 ft 553 kts 104°
2026-05-07 15:24 26.07950 37.23488 32903 ft 554 kts 105°
2026-05-07 15:24 26.06794 37.31958 32895 ft 554 kts 105°
2026-05-07 15:25 26.05629 37.40438 32907 ft 554 kts 105°
2026-05-07 15:25 26.04468 37.48863 32920 ft 554 kts 105°
2026-05-07 15:26 26.03295 37.57345 32914 ft 555 kts 105°
2026-05-07 15:26 26.02111 37.65875 32908 ft 555 kts 105°
2026-05-07 15:27 26.00933 37.74305 32904 ft 556 kts 105°
2026-05-07 15:27 25.99738 37.82810 32889 ft 557 kts 105°
2026-05-07 15:28 25.98539 37.91321 32890 ft 558 kts 105°
2026-05-07 15:28 25.97339 37.99829 32861 ft 556 kts 105°
2026-05-07 15:29 25.96131 38.08351 32861 ft 560 kts 105°
2026-05-07 15:29 25.94902 38.16938 32859 ft 563 kts 105°
2026-05-07 15:30 25.93679 38.25494 32854 ft 557 kts 105°
2026-05-07 15:30 25.92457 38.33983 32868 ft 555 kts 105°
2026-05-07 15:31 25.91240 38.42394 32877 ft 555 kts 105°
2026-05-07 15:31 25.90011 38.50853 32886 ft 556 kts 105°
2026-05-07 15:32 25.88773 38.59328 32891 ft 556 kts 105°
2026-05-07 15:32 25.87535 38.67803 32895 ft 556 kts 105°
2026-05-07 15:33 25.86286 38.76278 32895 ft 556 kts 105°
2026-05-07 15:33 25.85035 38.84753 32898 ft 557 kts 105°
2026-05-07 15:34 25.83776 38.93252 32913 ft 558 kts 105°
2026-05-07 15:34 25.82512 39.01754 32893 ft 558 kts 105°
2026-05-07 15:35 25.81243 39.10249 32902 ft 557 kts 106°
2026-05-07 15:35 25.79977 39.18679 32905 ft 557 kts 106°
2026-05-07 15:36 25.78692 39.27216 32905 ft 557 kts 106°
2026-05-07 15:36 25.77421 39.35619 32905 ft 556 kts 106°
2026-05-07 15:37 25.76134 39.44089 32910 ft 557 kts 106°
2026-05-07 15:37 25.74842 39.52557 32918 ft 557 kts 106°
2026-05-07 15:38 25.73545 39.61025 32925 ft 557 kts 106°
2026-05-07 15:38 25.72242 39.69505 32933 ft 557 kts 106°
2026-05-07 15:39 25.70936 39.77968 32942 ft 557 kts 106°
2026-05-07 15:39 25.69625 39.86431 32941 ft 556 kts 106°
2026-05-07 15:40 25.68309 39.94891 32943 ft 556 kts 106°
2026-05-07 15:40 25.66990 40.03336 32939 ft 556 kts 107°
2026-05-07 15:41 25.65676 40.11723 32945 ft 555 kts 107°
2026-05-07 15:41 25.64346 40.20167 32949 ft 555 kts 107°
2026-05-07 15:42 25.63014 40.28599 32933 ft 555 kts 107°
2026-05-07 15:42 25.61678 40.37022 32907 ft 555 kts 107°
2026-05-07 15:43 25.60334 40.45465 32916 ft 555 kts 107°
2026-05-07 15:43 25.58987 40.53893 32907 ft 555 kts 107°
2026-05-07 15:44 25.57646 40.62254 32900 ft 555 kts 107°
2026-05-07 15:44 25.56292 40.70664 32898 ft 555 kts 107°
2026-05-07 15:45 25.54934 40.79067 32893 ft 554 kts 107°
2026-05-07 15:45 25.53572 40.87464 32885 ft 554 kts 107°
2026-05-07 15:46 25.51523 41.00035 32878 ft 552 kts 107°
2026-05-07 15:47 25.50152 41.08402 32877 ft 551 kts 107°
2026-05-07 15:47 25.48783 41.16736 32873 ft 550 kts 107°
2026-05-07 15:48 25.47412 41.25045 32871 ft 549 kts 107°
2026-05-07 15:48 25.46037 41.33348 32877 ft 548 kts 107°
2026-05-07 15:49 25.44659 41.41640 32868 ft 548 kts 107°
2026-05-07 15:49 25.43277 41.49927 32873 ft 547 kts 107°
2026-05-07 15:50 25.41889 41.58212 32868 ft 548 kts 107°
2026-05-07 15:50 25.40499 41.66492 32866 ft 548 kts 107°
2026-05-07 15:51 25.39110 41.74730 32870 ft 548 kts 107°
2026-05-07 15:51 25.37709 41.83010 32872 ft 548 kts 107°
2026-05-07 15:52 25.36301 41.91305 32871 ft 549 kts 107°
2026-05-07 15:52 25.34884 41.99618 32878 ft 549 kts 107°
2026-05-07 15:53 25.33707 42.06509 32878 ft 550 kts 107°
2026-05-07 15:53 25.32282 42.14818 32886 ft 551 kts 107°
2026-05-07 15:54 25.30848 42.23151 32884 ft 551 kts 107°
2026-05-07 15:54 25.29411 42.31473 32894 ft 551 kts 107°
2026-05-07 15:55 25.27970 42.39791 32896 ft 552 kts 107°
2026-05-07 15:55 25.26521 42.48123 32902 ft 552 kts 107°
2026-05-07 15:56 25.25068 42.56452 32904 ft 552 kts 107°
2026-05-07 15:56 25.23613 42.64774 32912 ft 551 kts 107°
2026-05-07 15:57 25.22161 42.73034 32903 ft 551 kts 108°
2026-05-07 15:57 25.20696 42.81341 32913 ft 551 kts 108°
2026-05-07 15:58 25.19229 42.89636 32930 ft 550 kts 108°
2026-05-07 15:58 25.17761 42.97915 32921 ft 549 kts 108°
2026-05-07 15:59 25.16286 43.06197 32930 ft 549 kts 108°
2026-05-07 15:59 25.14810 43.14454 32930 ft 548 kts 107°
2026-05-07 16:00 25.13333 43.22692 32949 ft 547 kts 107°
2026-05-07 16:00 25.11853 43.30922 32946 ft 547 kts 107°
2026-05-07 16:01 25.10366 43.39158 32955 ft 547 kts 107°
2026-05-07 16:01 25.08873 43.47403 32954 ft 548 kts 107°
2026-05-07 16:02 25.07375 43.55652 32965 ft 549 kts 107°
2026-05-07 16:02 25.05878 43.63860 32971 ft 550 kts 107°
2026-05-07 16:03 25.04364 43.72136 32973 ft 551 kts 107°
2026-05-07 16:03 25.02842 43.80433 32974 ft 552 kts 107°
2026-05-07 16:04 25.01318 43.88733 32974 ft 552 kts 107°
2026-05-07 16:04 24.99791 43.97021 32979 ft 551 kts 107°
2026-05-07 16:05 24.98256 44.05300 32979 ft 551 kts 107°
2026-05-07 16:05 24.96715 44.13577 32975 ft 552 kts 107°
2026-05-07 16:06 24.95169 44.21859 32975 ft 552 kts 107°
2026-05-07 16:06 24.93616 44.30160 32972 ft 553 kts 107°
2026-05-07 16:07 24.92060 44.38455 32977 ft 554 kts 107°
2026-05-07 16:07 24.90494 44.46774 32977 ft 554 kts 107°
2026-05-07 16:08 24.88931 44.55050 32958 ft 555 kts 107°
2026-05-07 16:08 24.87358 44.63359 32968 ft 554 kts 107°
2026-05-07 16:09 24.85777 44.71678 32963 ft 553 kts 107°
2026-05-07 16:09 24.84198 44.79961 32956 ft 552 kts 107°
2026-05-07 16:10 24.82616 44.88235 32955 ft 550 kts 107°
2026-05-07 16:10 24.81036 44.96471 32951 ft 549 kts 107°
2026-05-07 16:11 24.79466 45.04626 32961 ft 548 kts 107°
2026-05-07 16:11 24.77881 45.12832 32951 ft 548 kts 107°
2026-05-07 16:12 24.76291 45.21045 32953 ft 548 kts 107°
2026-05-07 16:12 24.74695 45.29260 32948 ft 549 kts 107°
2026-05-07 16:13 24.73096 45.37467 32941 ft 549 kts 107°
2026-05-07 16:13 24.71488 45.45693 32945 ft 550 kts 107°
2026-05-07 16:14 24.69877 45.53915 32941 ft 550 kts 107°
2026-05-07 16:14 24.68260 45.62137 32938 ft 550 kts 107°
2026-05-07 16:15 24.66646 45.70321 32946 ft 551 kts 107°
2026-05-07 16:15 24.65018 45.78555 32940 ft 552 kts 107°
2026-05-07 16:16 24.63384 45.86791 32933 ft 552 kts 107°
2026-05-07 16:16 24.61742 45.95044 32938 ft 552 kts 107°
2026-05-07 16:17 24.60095 46.03293 32943 ft 553 kts 107°
2026-05-07 16:17 24.58442 46.11550 32940 ft 553 kts 107°
2026-05-07 16:18 24.56783 46.19812 32943 ft 554 kts 107°
2026-05-07 16:18 24.55118 46.28083 32943 ft 554 kts 107°
2026-05-07 16:19 24.53448 46.36352 32947 ft 555 kts 107°
2026-05-07 16:19 24.51771 46.44627 32942 ft 555 kts 107°
2026-05-07 16:20 24.50092 46.52892 32937 ft 555 kts 107°
2026-05-07 16:20 24.48407 46.61163 32939 ft 555 kts 107°
2026-05-07 16:21 24.46725 46.69390 32938 ft 555 kts 107°
2026-05-07 16:21 24.45032 46.77650 32927 ft 555 kts 107°
2026-05-07 16:22 24.43323 46.85964 32926 ft 555 kts 107°
2026-05-07 16:22 24.41629 46.94183 32917 ft 555 kts 107°
2026-05-07 16:23 24.39916 47.02477 32915 ft 554 kts 107°
2026-05-07 16:23 24.38218 47.10668 32903 ft 551 kts 107°
2026-05-07 16:24 24.36519 47.18840 32896 ft 549 kts 107°
2026-05-07 16:24 24.34819 47.26980 32896 ft 548 kts 107°
2026-05-07 16:25 24.33112 47.35141 32899 ft 548 kts 107°
2026-05-07 16:25 24.31402 47.43291 32899 ft 548 kts 107°
2026-05-07 16:26 24.29683 47.51450 32867 ft 549 kts 108°
2026-05-07 16:26 24.27950 47.59600 32899 ft 549 kts 108°
2026-05-07 16:27 24.26223 47.67747 32905 ft 549 kts 108°
2026-05-07 16:27 24.24509 47.75840 32898 ft 549 kts 108°
2026-05-07 16:28 24.22779 47.83985 32890 ft 549 kts 108°
2026-05-07 16:28 24.21041 47.92134 32876 ft 549 kts 108°
2026-05-07 16:29 24.19299 48.00277 32872 ft 548 kts 108°
2026-05-07 16:29 24.17556 48.08407 32875 ft 548 kts 108°
2026-05-07 16:30 24.15807 48.16542 32869 ft 548 kts 108°
2026-05-07 16:30 24.14056 48.24661 32861 ft 548 kts 108°
2026-05-07 16:31 24.12314 48.32719 32868 ft 548 kts 108°
2026-05-07 16:31 24.10554 48.40837 32858 ft 547 kts 107°
2026-05-07 16:32 24.08793 48.48937 32859 ft 547 kts 107°
2026-05-07 16:32 24.07030 48.57027 32852 ft 546 kts 107°
2026-05-07 16:33 24.05263 48.65111 32852 ft 546 kts 107°
2026-05-07 16:33 24.03493 48.73187 32850 ft 546 kts 107°
2026-05-07 16:34 24.01722 48.81246 32846 ft 545 kts 107°
2026-05-07 16:34 23.99944 48.89314 32845 ft 545 kts 107°
2026-05-07 16:35 23.98166 48.97367 32843 ft 545 kts 107°
2026-05-07 16:35 23.96381 49.05427 32842 ft 545 kts 107°
2026-05-07 16:36 23.94594 49.13470 32843 ft 545 kts 107°
2026-05-07 16:36 23.92803 49.21518 32844 ft 544 kts 107°
2026-05-07 16:37 23.91009 49.29554 32844 ft 544 kts 107°
2026-05-07 16:37 23.89221 49.37539 32838 ft 544 kts 107°
2026-05-07 16:38 23.87421 49.45562 32833 ft 544 kts 107°
2026-05-07 16:38 23.85615 49.53591 32832 ft 543 kts 107°
2026-05-07 16:39 23.83806 49.61612 32833 ft 543 kts 107°
2026-05-07 16:39 23.81993 49.69627 32833 ft 543 kts 107°
2026-05-07 16:40 23.80486 49.76276 32830 ft 543 kts 107°
2026-05-07 16:40 23.78664 49.84295 32824 ft 543 kts 107°
2026-05-07 16:41 23.76844 49.92284 32825 ft 543 kts 107°
2026-05-07 16:41 23.75022 50.00264 32819 ft 542 kts 107°
2026-05-07 16:42 23.73193 50.08254 32824 ft 542 kts 107°
2026-05-07 16:42 23.71360 50.16241 32825 ft 542 kts 107°
2026-05-07 16:43 23.69530 50.24198 32820 ft 542 kts 107°
2026-05-07 16:43 23.67695 50.32153 32819 ft 541 kts 107°
2026-05-07 16:44 23.65849 50.40134 32818 ft 541 kts 107°
2026-05-07 16:44 23.64011 50.48062 32818 ft 542 kts 107°
2026-05-07 16:45 23.62163 50.56014 32819 ft 542 kts 107°
2026-05-07 16:45 23.60304 50.63996 32816 ft 542 kts 107°
2026-05-07 16:46 23.58446 50.71951 32812 ft 542 kts 107°
2026-05-07 16:46 23.56583 50.79907 32806 ft 542 kts 107°
2026-05-07 16:47 23.54724 50.87830 32816 ft 542 kts 107°
2026-05-07 16:47 23.52845 50.95817 32813 ft 541 kts 107°
2026-05-07 16:48 23.50973 51.03753 32795 ft 541 kts 107°
2026-05-07 16:48 23.49100 51.11676 32807 ft 541 kts 107°
2026-05-07 16:49 23.47228 51.19579 32807 ft 540 kts 107°
2026-05-07 16:49 23.45339 51.27528 32800 ft 540 kts 107°
2026-05-07 16:50 23.43462 51.35413 32798 ft 541 kts 107°
2026-05-07 16:50 23.41567 51.43357 32798 ft 543 kts 107°
2026-05-07 16:51 23.39666 51.51297 32803 ft 544 kts 107°
2026-05-07 16:51 23.37754 51.59264 32804 ft 545 kts 107°
2026-05-07 16:52 23.35826 51.67286 32801 ft 546 kts 107°
2026-05-07 16:52 23.33907 51.75248 32800 ft 546 kts 107°
2026-05-07 16:53 23.31972 51.83257 32801 ft 546 kts 107°
2026-05-07 16:53 23.30041 51.91235 32802 ft 545 kts 107°
2026-05-07 16:54 23.28112 51.99180 32806 ft 545 kts 107°
2026-05-07 16:54 23.26165 52.07180 32807 ft 545 kts 107°
2026-05-07 16:55 23.24222 52.15148 32805 ft 545 kts 107°
2026-05-07 16:55 23.22269 52.23135 32803 ft 545 kts 107°
2026-05-07 16:56 23.20327 52.31062 32803 ft 545 kts 107°
2026-05-07 16:56 23.17391 52.43010 32802 ft 545 kts 107°
2026-05-07 16:57 23.15429 52.50971 32802 ft 545 kts 107°
2026-05-07 16:57 23.13464 52.58923 32802 ft 545 kts 107°
2026-05-07 16:58 23.11498 52.66862 32805 ft 545 kts 107°
2026-05-07 16:58 23.09523 52.74820 32802 ft 545 kts 107°
2026-05-07 16:59 23.07538 52.82803 32800 ft 545 kts 107°
2026-05-07 16:59 23.05564 52.90721 32805 ft 545 kts 107°
2026-05-07 17:00 23.03568 52.98706 32809 ft 545 kts 107°
2026-05-07 17:00 23.01579 53.06646 32808 ft 545 kts 107°
2026-05-07 17:01 22.99594 53.14555 32805 ft 545 kts 107°
2026-05-07 17:01 22.97593 53.22508 32807 ft 545 kts 107°
2026-05-07 17:02 22.95599 53.30416 32808 ft 544 kts 107°